Simultaneous Nadir Overpasses (SNOs) Predictions

Prediction of SNOs between GOES-15 and METOP-C Satellite Orbit:

Table of predicted SNOs for the next 14.0 days since TLE Epoch: 2/3/2024
Index Date Time (GOES-15) GOES-15 Lat,Lon METOP-C Lat,Lon Distance(km) Time Diff (sec)
1 02/04/2024 05:25:30 0.01, 61.60 0.20, 60.72 100.62 80
2 02/05/2024 05:07:30 0.00, 61.59 -0.89, 65.72 470.27 80
3 02/06/2024 17:26:30 0.01, 61.58 -0.12, 61.12 52.09 80
4 02/09/2024 05:22:00 -0.00, 61.57 -0.02, 61.56 1.88 80
5 02/11/2024 17:20:20 -0.00, 61.54 0.12, 61.97 48.75 80
6 02/13/2024 05:39:09 0.00, 61.55 0.90, 57.41 470.89 80
7 02/14/2024 05:21:08 0.00, 61.54 -0.20, 62.41 99.50 80
8 02/15/2024 17:40:08 -0.00, 61.52 -0.84, 57.83 421.18 80
9 02/16/2024 17:16:47 -0.00, 61.52 0.27, 62.83 148.10 80
